Time,TemperatureF,DewpointF,PressureIn,WindDirection,WindDirectionDegrees,WindSpeedMPH,WindSpeedGustMPH,Humidity,HourlyPrecipIn,Conditions,Clouds,dailyrainin,SoftwareType,DateUTC
2013-02-14 00:00:00,37.1,33.3,29.96,NW,308,4.0,8.0,86,0.00,,,0.00,WUHU216DAVISVP2,2013-02-14 05:00:00,
2013-02-14 00:05:00,37.3,33.5,29.96,NW,304,3.8,10.0,86,0.00,,,0.00,WUHU216DAVISVP2,2013-02-14 05:05:00,
2013-02-14 00:10:00,37.5,33.7,29.96,NW,316,2.6,10.0,86,0.00,,,0.00,WUHU216DAVISVP2,2013-02-14 05:10:00,
2013-02-14 00:15:00,37.5,33.7,29.96,NW,321,2.6,10.0,86,0.00,,,0.00,WUHU216DAVISVP2,2013-02-14 05:15:00,
2013-02-14 00:20:00,37.7,33.6,29.96,NW,321,3.5,10.0,85,0.00,,,0.00,WUHU216DAVISVP2,2013-02-14 05:20:00,
2013-02-14 00:25:00,37.7,33.6,29.96,NW,324,2.7,9.0,85,0.00,,,0.00,WUHU216DAVISVP2,2013-02-14 05:25:00,
2013-02-14 00:30:00,37.7,33.6,29.96,NNW,328,3.0,9.0,85,0.00,,,0.00,WUHU216DAVISVP2,2013-02-14 05:30:00,
2013-02-14 00:35:00,37.9,33.8,29.96,WNW,290,4.0,9.0,85,0.00,,,0.00,WUHU216DAVISVP2,2013-02-14 05:35:00,
2013-02-14 00:40:00,38.0,33.6,29.96,WNW,287,3.0,9.0,84,0.00,,,0.00,WUHU216DAVISVP2,2013-02-14 05:40:00,
2013-02-14 00:45:00,38.0,33.6,29.96,NW,310,4.1,9.0,84,0.00,,,0.00,WUHU216DAVISVP2,2013-02-14 05:45:00,
2013-02-14 00:50:00,38.1,33.7,29.96,NW,309,3.4,11.0,84,0.00,,,0.00,WUHU216DAVISVP2,2013-02-14 05:50:00,
2013-02-14 00:55:00,38.2,33.8,29.96,NNW,332,5.0,11.0,84,0.00,,,0.00,WUHU216DAVISVP2,2013-02-14 05:55:00,
2013-02-14 01:00:00,38.3,33.9,29.96,West,276,6.0,11.0,84,0.00,,,0.00,WUHU216DAVISVP2,2013-02-14 06:00:00,
2013-02-14 01:05:00,38.3,33.9,29.96,NW,318,3.7,11.0,84,0.00,,,0.00,WUHU216DAVISVP2,2013-02-14 06:05:00,
2013-02-14 01:10:00,38.4,34.0,29.96,West,264,5.0,11.0,84,0.00,,,0.00,WUHU216DAVISVP2,2013-02-14 06:10:00,
2013-02-14 01:15:00,38.4,34.0,29.96,WNW,296,5.0,11.0,84,0.00,,,0.00,WUHU216DAVISVP2,2013-02-14 06:15:00,
2013-02-14 01:20:00,38.5,34.1,29.96,NW,315,4.0,11.0,84,0.00,,,0.00,WUHU216DAVISVP2,2013-02-14 06:20:00,
2013-02-14 01:25:00,38.5,34.1,29.96,NNW,346,5.0,11.0,84,0.00,,,0.00,WUHU216DAVISVP2,2013-02-14 06:25:00,
2013-02-14 01:30:00,38.5,34.1,29.96,NW,304,3.4,11.0,84,0.00,,,0.00,WUHU216DAVISVP2,2013-02-14 06:30:00,
2013-02-14 01:35:00,38.6,34.2,29.96,NNW,329,9.0,11.0,84,0.00,,,0.00,WUHU216DAVISVP2,2013-02-14 06:35:00,
2013-02-14 01:40:00,38.6,34.2,29.96,NW,312,4.1,11.0,84,0.00,,,0.00,WUHU216DAVISVP2,2013-02-14 06:40:00,
2013-02-14 01:45:00,38.6,34.2,29.96,NW,316,4.9,11.0,84,0.00,,,0.00,WUHU216DAVISVP2,2013-02-14 06:45:00,
2013-02-14 01:50:00,38.6,34.2,29.96,NW,324,5.1,12.0,84,0.00,,,0.00,WUHU216DAVISVP2,2013-02-14 06:50:00,
2013-02-14 01:55:00,38.6,34.2,29.96,NW,310,5.0,12.0,84,0.00,,,0.00,WUHU216DAVISVP2,2013-02-14 06:55:00,
2013-02-14 02:00:00,38.6,34.2,29.96,NW,308,5.0,12.0,84,0.00,,,0.00,WUHU216DAVISVP2,2013-02-14 07:00:00,
2013-02-14 02:05:00,38.6,33.9,29.97,WNW,295,8.0,10.0,83,0.00,,,0.00,WUHU216DAVISVP2,2013-02-14 07:05:00,
2013-02-14 02:10:00,38.6,33.9,29.96,WNW,300,7.3,13.0,83,0.00,,,0.00,WUHU216DAVISVP2,2013-02-14 07:10:00,
2013-02-14 02:15:00,38.6,33.9,29.96,NW,311,6.6,13.0,83,0.00,,,0.00,WUHU216DAVISVP2,2013-02-14 07:15:00,
2013-02-14 02:20:00,38.6,33.9,29.96,NNW,341,8.0,13.0,83,0.00,,,0.00,WUHU216DAVISVP2,2013-02-14 07:20:00,
2013-02-14 02:25:00,38.6,33.9,29.96,West,264,8.0,13.0,83,0.00,,,0.00,WUHU216DAVISVP2,2013-02-14 07:25:00,
2013-02-14 02:30:00,38.6,33.9,29.96,NW,321,7.0,13.0,83,0.00,,,0.00,WUHU216DAVISVP2,2013-02-14 07:30:00,
2013-02-14 02:35:00,38.6,33.9,29.96,NW,322,4.8,12.0,83,0.00,,,0.00,WUHU216DAVISVP2,2013-02-14 07:35:00,
2013-02-14 02:40:00,38.5,34.1,29.96,West,281,4.0,12.0,84,0.00,,,0.00,WUHU216DAVISVP2,2013-02-14 07:40:00,
2013-02-14 02:45:00,38.5,34.1,29.96,WNW,301,4.8,11.0,84,0.00,,,0.00,WUHU216DAVISVP2,2013-02-14 07:45:00,
2013-02-14 02:50:00,38.5,34.1,29.96,NNW,328,4.0,12.0,84,0.00,,,0.00,WUHU216DAVISVP2,2013-02-14 07:50:00,
2013-02-14 02:55:00,38.4,33.7,29.97,NNW,334,8.0,12.0,83,0.00,,,0.00,WUHU216DAVISVP2,2013-02-14 07:55:00,
2013-02-14 03:00:00,38.4,33.7,29.97,NW,319,10.0,12.0,83,0.00,,,0.00,WUHU216DAVISVP2,2013-02-14 08:00:00,
2013-02-14 03:05:00,38.4,33.7,29.97,NNW,342,8.0,15.0,83,0.00,,,0.00,WUHU216DAVISVP2,2013-02-14 08:05:00,
2013-02-14 03:10:00,38.4,33.7,29.97,NW,314,4.5,16.0,83,0.00,,,0.00,WUHU216DAVISVP2,2013-02-14 08:10:00,
2013-02-14 03:15:00,38.4,33.7,29.97,NNW,329,5.0,16.0,83,0.00,,,0.00,WUHU216DAVISVP2,2013-02-14 08:15:00,
2013-02-14 03:20:00,38.4,33.7,29.97,NW,314,5.2,16.0,83,0.00,,,0.00,WUHU216DAVISVP2,2013-02-14 08:20:00,
2013-02-14 03:25:00,38.3,33.6,29.97,NW,312,4.0,14.0,83,0.00,,,0.00,WUHU216DAVISVP2,2013-02-14 08:25:00,
2013-02-14 03:30:00,38.3,33.6,29.97,WNW,298,7.0,14.0,83,0.00,,,0.00,WUHU216DAVISVP2,2013-02-14 08:30:00,
2013-02-14 03:35:00,38.3,33.6,29.97,WNW,301,5.0,16.0,83,0.00,,,0.00,WUHU216DAVISVP2,2013-02-14 08:35:00,
2013-02-14 03:40:00,38.3,33.6,29.97,NW,308,6.9,17.0,83,0.00,,,0.00,WUHU216DAVISVP2,2013-02-14 08:40:00,
2013-02-14 03:45:00,38.3,33.6,29.97,NW,318,5.2,17.0,83,0.00,,,0.00,WUHU216DAVISVP2,2013-02-14 08:45:00,
2013-02-14 03:50:00,38.3,33.6,29.97,NW,314,4.1,17.0,83,0.00,,,0.00,WUHU216DAVISVP2,2013-02-14 08:50:00,
2013-02-14 03:55:00,38.2,33.5,29.97,NW,310,5.3,17.0,83,0.00,,,0.00,WUHU216DAVISVP2,2013-02-14 08:55:00,
2013-02-14 04:00:00,38.2,33.5,29.97,WNW,301,4.3,13.0,83,0.00,,,0.00,WUHU216DAVISVP2,2013-02-14 09:00:00,
2013-02-14 04:05:00,38.2,33.5,29.97,NW,307,4.1,10.0,83,0.00,,,0.00,WUHU216DAVISVP2,2013-02-14 09:05:00,
2013-02-14 04:10:00,38.2,33.5,29.98,North,352,9.0,17.0,83,0.00,,,0.00,WUHU216DAVISVP2,2013-02-14 09:10:00,
2013-02-14 04:15:00,38.1,33.4,29.97,NW,309,4.0,17.0,83,0.00,,,0.00,WUHU216DAVISVP2,2013-02-14 09:15:00,
2013-02-14 04:20:00,38.1,33.4,29.97,NW,315,5.8,17.0,83,0.00,,,0.00,WUHU216DAVISVP2,2013-02-14 09:20:00,
2013-02-14 04:25:00,38.0,33.3,29.97,NW,304,5.2,13.0,83,0.00,,,0.00,WUHU216DAVISVP2,2013-02-14 09:25:00,
2013-02-14 04:30:00,38.0,33.3,29.98,NNW,338,7.0,13.0,83,0.00,,,0.00,WUHU216DAVISVP2,2013-02-14 09:30:00,
2013-02-14 04:35:00,38.0,33.3,29.98,NNW,336,5.0,12.0,83,0.00,,,0.00,WUHU216DAVISVP2,2013-02-14 09:35:00,
2013-02-14 04:40:00,38.0,33.3,29.98,NNW,328,2.9,10.0,83,0.00,,,0.00,WUHU216DAVISVP2,2013-02-14 09:40:00,
2013-02-14 04:45:00,38.0,33.3,29.98,NW,309,5.5,13.0,83,0.00,,,0.00,WUHU216DAVISVP2,2013-02-14 09:45:00,
2013-02-14 04:50:00,37.9,33.2,29.98,NW,308,3.8,13.0,83,0.00,,,0.00,WUHU216DAVISVP2,2013-02-14 09:50:00,
2013-02-14 04:55:00,38.0,33.6,29.98,NW,320,4.0,13.0,84,0.00,,,0.00,WUHU216DAVISVP2,2013-02-14 09:55:00,
2013-02-14 05:00:00,37.9,33.5,29.98,NW,313,4.0,13.0,84,0.00,,,0.00,WUHU216DAVISVP2,2013-02-14 10:00:00,
2013-02-14 05:05:00,37.9,33.5,29.98,NW,321,3.3,11.0,84,0.00,,,0.00,WUHU216DAVISVP2,2013-02-14 10:05:00,
2013-02-14 05:10:00,37.8,33.4,29.98,WNW,301,3.3,10.0,84,0.00,,,0.00,WUHU216DAVISVP2,2013-02-14 10:10:00,
2013-02-14 05:15:00,37.7,33.3,29.98,NW,321,3.8,10.0,84,0.00,,,0.00,WUHU216DAVISVP2,2013-02-14 10:15:00,
2013-02-14 05:20:00,37.7,33.0,29.98,NW,312,5.8,10.0,83,0.00,,,0.00,WUHU216DAVISVP2,2013-02-14 10:20:00,
2013-02-14 05:25:00,37.7,33.0,29.98,NW,322,5.0,16.0,83,0.00,,,0.00,WUHU216DAVISVP2,2013-02-14 10:25:00,
2013-02-14 05:30:00,37.6,32.9,29.98,NNW,342,5.0,16.0,83,0.00,,,0.00,WUHU216DAVISVP2,2013-02-14 10:30:00,
2013-02-14 05:35:00,37.6,32.9,29.98,NW,308,5.3,15.0,83,0.00,,,0.00,WUHU216DAVISVP2,2013-02-14 10:35:00,
2013-02-14 05:40:00,37.5,32.8,29.98,NW,309,3.1,11.0,83,0.00,,,0.00,WUHU216DAVISVP2,2013-02-14 10:40:00,
2013-02-14 05:45:00,37.5,32.8,29.98,NNW,336,9.0,11.0,83,0.00,,,0.00,WUHU216DAVISVP2,2013-02-14 10:45:00,
2013-02-14 05:50:00,37.4,32.7,29.98,WNW,292,4.0,10.0,83,0.00,,,0.00,WUHU216DAVISVP2,2013-02-14 10:50:00,
2013-02-14 05:55:00,37.3,32.6,29.98,NW,316,5.8,15.0,83,0.00,,,0.00,WUHU216DAVISVP2,2013-02-14 10:55:00,
2013-02-14 06:00:00,37.3,32.3,29.99,NW,314,3.9,15.0,82,0.00,,,0.00,WUHU216DAVISVP2,2013-02-14 11:00:00,
2013-02-14 06:05:00,37.4,32.4,29.99,NNW,330,4.4,15.0,82,0.00,,,0.00,WUHU216DAVISVP2,2013-02-14 11:05:00,
2013-02-14 06:10:00,37.3,32.3,29.99,NW,313,5.1,15.0,82,0.00,,,0.00,WUHU216DAVISVP2,2013-02-14 11:10:00,
2013-02-14 06:15:00,37.3,32.3,29.99,NW,313,3.0,13.0,82,0.00,,,0.00,WUHU216DAVISVP2,2013-02-14 11:15:00,
2013-02-14 06:20:00,37.3,32.3,30.00,NW,319,1.8,11.0,82,0.00,,,0.00,WUHU216DAVISVP2,2013-02-14 11:20:00,
2013-02-14 06:25:00,37.3,32.6,30.00,NW,315,3.5,11.0,83,0.00,,,0.00,WUHU216DAVISVP2,2013-02-14 11:25:00,
2013-02-14 06:30:00,37.3,32.3,30.01,NW,319,5.0,13.0,82,0.00,,,0.00,WUHU216DAVISVP2,2013-02-14 11:30:00,
2013-02-14 06:35:00,37.3,32.3,30.01,NNW,329,8.0,17.0,82,0.00,,,0.00,WUHU216DAVISVP2,2013-02-14 11:35:00,
2013-02-14 06:40:00,37.3,32.0,30.01,WNW,293,6.0,17.0,81,0.00,,,0.00,WUHU216DAVISVP2,2013-02-14 11:40:00,
2013-02-14 06:45:00,37.3,32.0,30.02,North,3,5.0,17.0,81,0.00,,,0.00,WUHU216DAVISVP2,2013-02-14 11:45:00,
2013-02-14 06:50:00,37.3,32.0,30.02,NW,307,3.6,17.0,81,0.00,,,0.00,WUHU216DAVISVP2,2013-02-14 11:50:00,
2013-02-14 06:55:00,37.2,31.9,30.02,NW,309,4.4,10.0,81,0.00,,,0.00,WUHU216DAVISVP2,2013-02-14 11:55:00,
2013-02-14 07:00:00,37.1,31.8,30.02,NW,306,3.8,10.0,81,0.00,,,0.00,WUHU216DAVISVP2,2013-02-14 12:00:00,
2013-02-14 07:05:00,37.1,31.8,30.03,NW,320,3.4,10.0,81,0.00,,,0.00,WUHU216DAVISVP2,2013-02-14 12:05:00,
2013-02-14 07:10:00,37.0,32.0,30.03,NW,318,2.8,9.0,82,0.00,,,0.00,WUHU216DAVISVP2,2013-02-14 12:10:00,
2013-02-14 07:15:00,37.0,32.0,30.03,NNW,331,3.3,7.0,82,0.00,,,0.00,WUHU216DAVISVP2,2013-02-14 12:15:00,
2013-02-14 07:20:00,37.0,32.0,30.03,NNW,335,1.9,7.0,82,0.00,,,0.00,WUHU216DAVISVP2,2013-02-14 12:20:00,
2013-02-14 07:25:00,37.0,32.0,30.04,WNW,297,3.0,7.0,82,0.00,,,0.00,WUHU216DAVISVP2,2013-02-14 12:25:00,
2013-02-14 07:30:00,37.1,32.1,30.04,NW,306,2.5,7.0,82,0.00,,,0.00,WUHU216DAVISVP2,2013-02-14 12:30:00,
2013-02-14 07:35:00,37.1,32.1,30.04,NW,317,4.0,7.0,82,0.00,,,0.00,WUHU216DAVISVP2,2013-02-14 12:35:00,
2013-02-14 07:40:00,37.1,32.1,30.04,NW,305,1.7,7.0,82,0.00,,,0.00,WUHU216DAVISVP2,2013-02-14 12:40:00,
2013-02-14 07:45:00,37.1,32.1,30.04,NW,312,1.6,7.0,82,0.00,,,0.00,WUHU216DAVISVP2,2013-02-14 12:45:00,
2013-02-14 07:50:00,37.1,32.1,30.04,NW,317,2.0,7.0,82,0.00,,,0.00,WUHU216DAVISVP2,2013-02-14 12:50:00,
2013-02-14 07:55:00,37.2,32.2,30.05,WNW,298,3.0,7.0,82,0.00,,,0.00,WUHU216DAVISVP2,2013-02-14 12:55:00,
2013-02-14 08:00:00,37.2,32.2,30.04,NW,315,2.2,7.0,82,0.00,,,0.00,WUHU216DAVISVP2,2013-02-14 13:00:00,
2013-02-14 08:05:00,37.2,32.2,30.06,NW,313,2.0,7.0,82,0.00,,,0.00,WUHU216DAVISVP2,2013-02-14 13:05:00,
2013-02-14 08:10:00,37.2,32.2,30.05,NW,306,3.0,5.0,82,0.00,,,0.00,WUHU216DAVISVP2,2013-02-14 13:10:00,
2013-02-14 08:15:00,37.2,31.9,30.06,NW,315,2.6,5.0,81,0.00,,,0.00,WUHU216DAVISVP2,2013-02-14 13:15:00,
2013-02-14 08:20:00,37.3,32.0,30.05,NW,318,3.0,8.0,81,0.00,,,0.00,WUHU216DAVISVP2,2013-02-14 13:20:00,
2013-02-14 08:25:00,37.4,32.1,30.05,NNW,333,2.0,8.0,81,0.00,,,0.00,WUHU216DAVISVP2,2013-02-14 13:25:00,
2013-02-14 08:30:00,37.5,31.9,30.05,NW,314,2.4,8.0,80,0.00,,,0.00,WUHU216DAVISVP2,2013-02-14 13:30:00,
2013-02-14 08:35:00,37.5,32.2,30.06,NW,324,2.2,8.0,81,0.00,,,0.00,WUHU216DAVISVP2,2013-02-14 13:35:00,
2013-02-14 08:40:00,37.6,32.0,30.06,NW,308,2.1,6.0,80,0.00,,,0.00,WUHU216DAVISVP2,2013-02-14 13:40:00,
2013-02-14 08:45:00,37.7,32.1,30.06,WNW,294,3.0,6.0,80,0.00,,,0.00,WUHU216DAVISVP2,2013-02-14 13:45:00,
2013-02-14 08:50:00,37.8,32.2,30.06,NNW,329,3.4,6.0,80,0.00,,,0.00,WUHU216DAVISVP2,2013-02-14 13:50:00,
2013-02-14 08:55:00,37.9,32.3,30.06,NW,323,5.0,8.0,80,0.00,,,0.00,WUHU216DAVISVP2,2013-02-14 13:55:00,
2013-02-14 09:00:00,37.9,32.0,30.06,NW,312,4.1,11.0,79,0.00,,,0.00,WUHU216DAVISVP2,2013-02-14 14:00:00,
2013-02-14 09:05:00,37.9,32.0,30.05,NW,325,7.0,11.0,79,0.00,,,0.00,WUHU216DAVISVP2,2013-02-14 14:05:00,
2013-02-14 09:10:00,37.9,32.0,30.06,NW,316,5.0,11.0,79,0.00,,,0.00,WUHU216DAVISVP2,2013-02-14 14:10:00,
2013-02-14 09:15:00,38.0,32.1,30.05,NNW,327,5.0,11.0,79,0.00,,,0.00,WUHU216DAVISVP2,2013-02-14 14:15:00,
2013-02-14 09:20:00,38.3,32.4,30.05,NW,306,3.4,11.0,79,0.00,,,0.00,WUHU216DAVISVP2,2013-02-14 14:20:00,
2013-02-14 09:25:00,38.6,32.4,30.05,West,281,5.0,11.0,78,0.00,,,0.00,WUHU216DAVISVP2,2013-02-14 14:25:00,
2013-02-14 09:30:00,38.8,32.2,30.05,NNW,338,7.0,10.0,77,0.00,,,0.00,WUHU216DAVISVP2,2013-02-14 14:30:00,
2013-02-14 09:35:00,39.0,32.4,30.05,NW,320,4.3,13.0,77,0.00,,,0.00,WUHU216DAVISVP2,2013-02-14 14:35:00,
2013-02-14 09:40:00,39.3,32.4,30.04,North,350,10.0,13.0,76,0.00,,,0.00,WUHU216DAVISVP2,2013-02-14 14:40:00,
2013-02-14 09:45:00,39.7,32.8,30.05,NW,310,2.1,12.0,76,0.00,,,0.00,WUHU216DAVISVP2,2013-02-14 14:45:00,
2013-02-14 09:50:00,40.0,33.1,30.05,NNW,331,1.5,12.0,76,0.00,,,0.00,WUHU216DAVISVP2,2013-02-14 14:50:00,
2013-02-14 09:55:00,40.2,33.0,30.06,NW,308,3.2,11.0,75,0.00,,,0.00,WUHU216DAVISVP2,2013-02-14 14:55:00,
2013-02-14 10:00:00,40.4,33.2,30.06,NW,304,3.0,8.0,75,0.00,,,0.00,WUHU216DAVISVP2,2013-02-14 15:00:00,
2013-02-14 10:05:00,40.5,33.3,30.05,NNW,331,2.0,8.0,75,0.00,,,0.00,WUHU216DAVISVP2,2013-02-14 15:05:00,
2013-02-14 10:10:00,40.8,33.2,30.07,NNW,347,3.0,8.0,74,0.00,,,0.00,WUHU216DAVISVP2,2013-02-14 15:10:00,
2013-02-14 10:15:00,41.0,33.1,30.06,NW,317,3.0,5.0,73,0.00,,,0.00,WUHU216DAVISVP2,2013-02-14 15:15:00,
2013-02-14 10:20:00,41.0,33.1,30.07,WNW,293,3.0,5.0,73,0.00,,,0.00,WUHU216DAVISVP2,2013-02-14 15:20:00,
2013-02-14 10:25:00,41.1,33.2,30.06,NW,322,3.5,8.0,73,0.00,,,0.00,WUHU216DAVISVP2,2013-02-14 15:25:00,
2013-02-14 10:30:00,41.5,33.2,30.06,WNW,300,2.5,8.0,72,0.00,,,0.00,WUHU216DAVISVP2,2013-02-14 15:30:00,
2013-02-14 10:35:00,42.1,33.8,30.07,NW,320,1.1,7.0,72,0.00,,,0.00,WUHU216DAVISVP2,2013-02-14 15:35:00,
2013-02-14 10:40:00,42.4,33.7,30.07,NNW,345,6.0,9.0,71,0.00,,,0.00,WUHU216DAVISVP2,2013-02-14 15:40:00,
2013-02-14 10:45:00,42.4,33.4,30.07,NNW,333,3.1,9.0,70,0.00,,,0.00,WUHU216DAVISVP2,2013-02-14 15:45:00,
2013-02-14 10:50:00,42.3,33.3,30.07,NW,305,1.2,8.0,70,0.00,,,0.00,WUHU216DAVISVP2,2013-02-14 15:50:00,
2013-02-14 10:55:00,42.5,33.5,30.07,NW,308,1.3,8.0,70,0.00,,,0.00,WUHU216DAVISVP2,2013-02-14 15:55:00,
2013-02-14 11:00:00,42.6,33.6,30.08,NNW,327,2.9,8.0,70,0.00,,,0.00,WUHU216DAVISVP2,2013-02-14 16:00:00,
2013-02-14 11:05:00,42.9,33.5,30.08,NNW,338,2.0,7.0,69,0.00,,,0.00,WUHU216DAVISVP2,2013-02-14 16:05:00,
2013-02-14 11:10:00,43.2,33.8,30.08,NW,317,0.0,7.0,69,0.00,,,0.00,WUHU216DAVISVP2,2013-02-14 16:10:00,
2013-02-14 11:15:00,43.7,34.3,30.07,NW,317,2.0,7.0,69,0.00,,,0.00,WUHU216DAVISVP2,2013-02-14 16:15:00,
2013-02-14 11:20:00,44.1,34.3,30.07,WNW,300,1.0,4.0,68,0.00,,,0.00,WUHU216DAVISVP2,2013-02-14 16:20:00,
2013-02-14 11:25:00,44.4,33.8,30.08,NW,316,2.0,4.0,66,0.00,,,0.00,WUHU216DAVISVP2,2013-02-14 16:25:00,
2013-02-14 11:30:00,44.5,33.9,30.07,WNW,294,3.0,4.0,66,0.00,,,0.00,WUHU216DAVISVP2,2013-02-14 16:30:00,
2013-02-14 11:35:00,44.7,34.1,30.07,NW,321,1.3,4.0,66,0.00,,,0.00,WUHU216DAVISVP2,2013-02-14 16:35:00,
2013-02-14 11:40:00,45.0,34.4,30.07,NNW,329,1.4,5.0,66,0.00,,,0.00,WUHU216DAVISVP2,2013-02-14 16:40:00,
2013-02-14 11:45:00,45.5,34.1,30.08,NW,325,2.7,6.0,64,0.00,,,0.00,WUHU216DAVISVP2,2013-02-14 16:45:00,
2013-02-14 11:50:00,45.8,34.4,30.08,WNW,297,1.7,6.0,64,0.00,,,0.00,WUHU216DAVISVP2,2013-02-14 16:50:00,
2013-02-14 11:55:00,46.0,34.2,30.07,WNW,300,2.1,7.0,63,0.00,,,0.00,WUHU216DAVISVP2,2013-02-14 16:55:00,
2013-02-14 12:00:00,46.2,34.4,30.06,WNW,286,2.0,7.0,63,0.00,,,0.00,WUHU216DAVISVP2,2013-02-14 17:00:00,
2013-02-14 12:05:00,46.6,34.4,30.06,NW,322,4.0,7.0,62,0.00,,,0.00,WUHU216DAVISVP2,2013-02-14 17:05:00,
2013-02-14 12:10:00,46.7,33.6,30.06,NNW,330,3.0,7.0,60,0.00,,,0.00,WUHU216DAVISVP2,2013-02-14 17:10:00,
2013-02-14 12:15:00,46.9,33.7,30.06,NW,319,3.3,7.0,60,0.00,,,0.00,WUHU216DAVISVP2,2013-02-14 17:15:00,
2013-02-14 12:20:00,47.3,34.9,30.06,NW,324,1.0,7.0,62,0.00,,,0.00,WUHU216DAVISVP2,2013-02-14 17:20:00,
2013-02-14 12:25:00,47.6,35.2,30.06,WNW,286,0.0,7.0,62,0.00,,,0.00,WUHU216DAVISVP2,2013-02-14 17:25:00,
2013-02-14 12:30:00,48.1,35.8,30.06,NNW,332,1.0,5.0,62,0.00,,,0.00,WUHU216DAVISVP2,2013-02-14 17:30:00,
2013-02-14 12:35:00,48.4,35.6,30.05,NW,306,1.7,4.0,61,0.00,,,0.00,WUHU216DAVISVP2,2013-02-14 17:35:00,
2013-02-14 12:40:00,48.7,35.0,30.05,NW,310,2.0,4.0,59,0.00,,,0.00,WUHU216DAVISVP2,2013-02-14 17:40:00,
2013-02-14 12:45:00,48.7,33.2,30.05,NNW,336,1.9,5.0,55,0.00,,,0.00,WUHU216DAVISVP2,2013-02-14 17:45:00,
2013-02-14 12:50:00,48.8,34.2,30.05,NNW,331,1.0,5.0,57,0.00,,,0.00,WUHU216DAVISVP2,2013-02-14 17:50:00,
2013-02-14 12:55:00,49.1,34.1,30.04,ENE,73,1.6,4.0,56,0.00,,,0.00,WUHU216DAVISVP2,2013-02-14 17:55:00,
2013-02-14 13:00:00,49.5,34.0,30.05,SW,236,1.0,4.0,55,0.00,,,0.00,WUHU216DAVISVP2,2013-02-14 18:00:00,
2013-02-14 13:05:00,50.0,34.0,30.05,ESE,111,0.0,3.0,54,0.00,,,0.00,WUHU216DAVISVP2,2013-02-14 18:05:00,
2013-02-14 13:10:00,50.5,33.5,30.05,ESE,111,1.0,3.0,52,0.00,,,0.00,WUHU216DAVISVP2,2013-02-14 18:10:00,
2013-02-14 13:15:00,51.0,35.0,30.04,East,85,2.0,3.0,54,0.00,,,0.00,WUHU216DAVISVP2,2013-02-14 18:15:00,
2013-02-14 13:20:00,50.8,33.3,30.04,WNW,294,1.7,3.0,51,0.00,,,0.00,WUHU216DAVISVP2,2013-02-14 18:20:00,
2013-02-14 13:25:00,50.8,33.3,30.04,East,101,2.0,3.0,51,0.00,,,0.00,WUHU216DAVISVP2,2013-02-14 18:25:00,
2013-02-14 13:30:00,51.1,33.1,30.04,NE,38,1.0,3.0,50,0.00,,,0.00,WUHU216DAVISVP2,2013-02-14 18:30:00,
2013-02-14 13:35:00,51.2,33.2,30.03,North,10,0.0,3.0,50,0.00,,,0.00,WUHU216DAVISVP2,2013-02-14 18:35:00,
2013-02-14 13:40:00,51.6,34.6,30.03,NW,312,1.1,3.0,52,0.00,,,0.00,WUHU216DAVISVP2,2013-02-14 18:40:00,
2013-02-14 13:45:00,51.8,34.2,30.03,NNW,329,4.0,4.0,51,0.00,,,0.00,WUHU216DAVISVP2,2013-02-14 18:45:00,
2013-02-14 13:50:00,52.1,35.0,30.03,NW,304,1.0,4.0,52,0.00,,,0.00,WUHU216DAVISVP2,2013-02-14 18:50:00,
2013-02-14 13:55:00,52.6,35.5,30.03,West,277,1.8,4.0,52,0.00,,,0.00,WUHU216DAVISVP2,2013-02-14 18:55:00,
2013-02-14 14:00:00,52.7,34.6,30.03,NW,322,3.0,4.0,50,0.00,,,0.00,WUHU216DAVISVP2,2013-02-14 19:00:00,
2013-02-14 14:05:00,53.1,35.4,30.03,NW,324,1.1,3.0,51,0.00,,,0.00,WUHU216DAVISVP2,2013-02-14 19:05:00,
2013-02-14 14:10:00,53.0,32.7,30.02,NNW,342,3.0,5.0,46,0.00,,,0.00,WUHU216DAVISVP2,2013-02-14 19:10:00,
2013-02-14 14:15:00,52.9,32.7,30.02,WNW,300,2.1,5.0,46,0.00,,,0.00,WUHU216DAVISVP2,2013-02-14 19:15:00,
2013-02-14 14:20:00,53.2,33.5,30.03,West,280,0.0,5.0,47,0.00,,,0.00,WUHU216DAVISVP2,2013-02-14 19:20:00,
2013-02-14 14:25:00,53.5,33.1,30.03,NW,306,2.1,9.0,46,0.00,,,0.00,WUHU216DAVISVP2,2013-02-14 19:25:00,
2013-02-14 14:30:00,53.1,33.3,30.02,NW,312,1.8,9.0,47,0.00,,,0.00,WUHU216DAVISVP2,2013-02-14 19:30:00,
2013-02-14 14:35:00,52.9,32.6,30.02,WNW,301,1.0,9.0,46,0.00,,,0.00,WUHU216DAVISVP2,2013-02-14 19:35:00,
2013-02-14 14:40:00,52.7,33.5,30.02,NW,317,0.0,9.0,48,0.00,,,0.00,WUHU216DAVISVP2,2013-02-14 19:40:00,
2013-02-14 14:45:00,52.8,33.1,30.02,NNW,332,1.5,6.0,47,0.00,,,0.00,WUHU216DAVISVP2,2013-02-14 19:45:00,
2013-02-14 14:50:00,53.0,33.2,30.02,NW,308,3.5,6.0,47,0.00,,,0.00,WUHU216DAVISVP2,2013-02-14 19:50:00,
2013-02-14 14:55:00,52.9,33.1,30.02,NW,325,3.0,6.0,47,0.00,,,0.00,WUHU216DAVISVP2,2013-02-14 19:55:00,
2013-02-14 15:00:00,52.9,33.1,30.01,NNW,335,4.0,9.0,47,0.00,,,0.00,WUHU216DAVISVP2,2013-02-14 20:00:00,
2013-02-14 15:05:00,53.1,33.3,30.01,NW,315,1.6,9.0,47,0.00,,,0.00,WUHU216DAVISVP2,2013-02-14 20:05:00,
2013-02-14 15:10:00,53.4,34.7,30.02,NNW,347,5.0,9.0,49,0.00,,,0.00,WUHU216DAVISVP2,2013-02-14 20:10:00,
2013-02-14 15:15:00,53.6,33.8,30.02,WNW,294,2.0,9.0,47,0.00,,,0.00,WUHU216DAVISVP2,2013-02-14 20:15:00,
2013-02-14 15:20:00,53.6,33.2,30.02,NW,320,2.5,8.0,46,0.00,,,0.00,WUHU216DAVISVP2,2013-02-14 20:20:00,
2013-02-14 15:25:00,53.5,33.7,30.02,NW,309,3.9,9.0,47,0.00,,,0.00,WUHU216DAVISVP2,2013-02-14 20:25:00,
2013-02-14 15:30:00,53.5,34.2,30.02,NW,317,3.2,9.0,48,0.00,,,0.00,WUHU216DAVISVP2,2013-02-14 20:30:00,
2013-02-14 15:35:00,53.9,34.1,30.01,West,264,2.0,8.0,47,0.00,,,0.00,WUHU216DAVISVP2,2013-02-14 20:35:00,
2013-02-14 15:40:00,53.7,33.9,30.01,NNW,345,3.0,8.0,47,0.00,,,0.00,WUHU216DAVISVP2,2013-02-14 20:40:00,
2013-02-14 15:45:00,53.6,33.8,30.01,NW,309,4.6,8.0,47,0.00,,,0.00,WUHU216DAVISVP2,2013-02-14 20:45:00,
2013-02-14 15:50:00,53.5,34.3,30.01,NW,316,5.0,8.0,48,0.00,,,0.00,WUHU216DAVISVP2,2013-02-14 20:50:00,
2013-02-14 15:55:00,53.5,34.3,30.01,West,281,4.0,9.0,48,0.00,,,0.00,WUHU216DAVISVP2,2013-02-14 20:55:00,
2013-02-14 16:00:00,53.5,33.2,30.01,NNW,332,2.9,9.0,46,0.00,,,0.00,WUHU216DAVISVP2,2013-02-14 21:00:00,
2013-02-14 16:05:00,53.5,33.7,30.01,NW,324,3.9,13.0,47,0.00,,,0.00,WUHU216DAVISVP2,2013-02-14 21:05:00,
2013-02-14 16:10:00,53.4,34.1,30.00,WNW,293,1.2,13.0,48,0.00,,,0.00,WUHU216DAVISVP2,2013-02-14 21:10:00,
2013-02-14 16:15:00,53.4,34.1,30.00,NW,310,2.2,12.0,48,0.00,,,0.00,WUHU216DAVISVP2,2013-02-14 21:15:00,
2013-02-14 16:20:00,53.5,34.2,30.01,NNW,334,5.0,12.0,48,0.00,,,0.00,WUHU216DAVISVP2,2013-02-14 21:20:00,
2013-02-14 16:25:00,53.5,33.7,30.01,WNW,290,2.0,8.0,47,0.00,,,0.00,WUHU216DAVISVP2,2013-02-14 21:25:00,
2013-02-14 16:30:00,53.6,34.4,30.01,WNW,299,2.3,7.0,48,0.00,,,0.00,WUHU216DAVISVP2,2013-02-14 21:30:00,
2013-02-14 16:35:00,53.6,34.4,30.01,NW,318,2.3,7.0,48,0.00,,,0.00,WUHU216DAVISVP2,2013-02-14 21:35:00,
2013-02-14 16:40:00,53.6,34.9,30.01,NW,312,1.1,6.0,49,0.00,,,0.00,WUHU216DAVISVP2,2013-02-14 21:40:00,
2013-02-14 16:45:00,53.7,34.4,30.01,West,259,4.0,7.0,48,0.00,,,0.00,WUHU216DAVISVP2,2013-02-14 21:45:00,
2013-02-14 16:50:00,53.3,34.1,30.01,NNW,329,2.7,7.0,48,0.00,,,0.00,WUHU216DAVISVP2,2013-02-14 21:50:00,
2013-02-14 16:55:00,53.2,34.5,30.01,WNW,302,1.9,7.0,49,0.00,,,0.00,WUHU216DAVISVP2,2013-02-14 21:55:00,
2013-02-14 17:00:00,53.0,34.3,30.01,NW,318,2.0,7.0,49,0.00,,,0.00,WUHU216DAVISVP2,2013-02-14 22:00:00,
2013-02-14 17:05:00,53.0,34.3,30.01,NW,317,3.6,7.0,49,0.00,,,0.00,WUHU216DAVISVP2,2013-02-14 22:05:00,
2013-02-14 17:10:00,52.9,34.8,30.01,North,351,6.0,7.0,50,0.00,,,0.00,WUHU216DAVISVP2,2013-02-14 22:10:00,
2013-02-14 17:15:00,52.9,33.7,30.01,NW,310,2.6,9.0,48,0.00,,,0.00,WUHU216DAVISVP2,2013-02-14 22:15:00,
2013-02-14 17:20:00,52.7,33.5,30.01,WNW,282,4.0,9.0,48,0.00,,,0.00,WUHU216DAVISVP2,2013-02-14 22:20:00,
2013-02-14 17:25:00,52.5,33.8,30.01,NW,316,4.9,10.0,49,0.00,,,0.00,WUHU216DAVISVP2,2013-02-14 22:25:00,
2013-02-14 17:30:00,52.3,33.7,30.01,NW,318,4.7,10.0,49,0.00,,,0.00,WUHU216DAVISVP2,2013-02-14 22:30:00,
2013-02-14 17:35:00,52.2,33.6,30.01,NNW,336,6.7,10.0,49,0.00,,,0.00,WUHU216DAVISVP2,2013-02-14 22:35:00,
2013-02-14 17:40:00,52.1,34.5,30.01,WNW,300,2.0,10.0,51,0.00,,,0.00,WUHU216DAVISVP2,2013-02-14 22:40:00,
2013-02-14 17:45:00,52.0,34.4,30.01,NW,306,4.0,10.0,51,0.00,,,0.00,WUHU216DAVISVP2,2013-02-14 22:45:00,
2013-02-14 17:50:00,51.9,34.3,30.01,WNW,290,3.0,9.0,51,0.00,,,0.00,WUHU216DAVISVP2,2013-02-14 22:50:00,
2013-02-14 17:55:00,51.8,34.2,30.01,West,277,4.0,9.0,51,0.00,,,0.00,WUHU216DAVISVP2,2013-02-14 22:55:00,
2013-02-14 18:00:00,51.6,34.6,30.01,NW,309,1.5,9.0,52,0.00,,,0.00,WUHU216DAVISVP2,2013-02-14 23:00:00,
2013-02-14 18:05:00,51.4,34.4,30.02,WNW,289,4.0,9.0,52,0.00,,,0.00,WUHU216DAVISVP2,2013-02-14 23:05:00,
2013-02-14 18:10:00,51.3,34.8,30.02,NNW,336,3.0,7.0,53,0.00,,,0.00,WUHU216DAVISVP2,2013-02-14 23:10:00,
2013-02-14 18:15:00,51.0,34.5,30.01,NNW,336,1.5,6.0,53,0.00,,,0.00,WUHU216DAVISVP2,2013-02-14 23:15:00,
2013-02-14 18:20:00,50.8,34.7,30.02,NW,313,1.3,5.0,54,0.00,,,0.00,WUHU216DAVISVP2,2013-02-14 23:20:00,
2013-02-14 18:25:00,50.5,34.5,30.01,NNW,339,1.2,4.0,54,0.00,,,0.00,WUHU216DAVISVP2,2013-02-14 23:25:00,
2013-02-14 18:30:00,50.3,34.3,30.01,NNW,331,1.0,4.0,54,0.00,,,0.00,WUHU216DAVISVP2,2013-02-14 23:30:00,
2013-02-14 18:35:00,50.1,34.6,30.02,NNW,331,1.0,3.0,55,0.00,,,0.00,WUHU216DAVISVP2,2013-02-14 23:35:00,
2013-02-14 18:40:00,49.9,34.9,30.02,NNW,332,1.3,3.0,56,0.00,,,0.00,WUHU216DAVISVP2,2013-02-14 23:40:00,
2013-02-14 18:45:00,49.6,35.1,30.02,NNW,333,1.0,2.0,57,0.00,,,0.00,WUHU216DAVISVP2,2013-02-14 23:45:00,
2013-02-14 18:50:00,49.3,34.7,30.02,NNW,333,1.0,2.0,57,0.00,,,0.00,WUHU216DAVISVP2,2013-02-14 23:50:00,
2013-02-14 18:55:00,49.1,34.9,30.02,NNW,333,1.0,2.0,58,0.00,,,0.00,WUHU216DAVISVP2,2013-02-14 23:55:00,
2013-02-14 19:00:00,49.0,34.9,30.02,NNW,334,0.0,2.0,58,0.00,,,0.00,WUHU216DAVISVP2,2013-02-15 00:00:00,
2013-02-14 19:05:00,49.0,34.9,30.02,NNW,333,0.0,2.0,58,0.00,,,0.00,WUHU216DAVISVP2,2013-02-15 00:05:00,
2013-02-14 19:10:00,49.0,34.9,30.02,NNW,334,1.0,2.0,58,0.00,,,0.00,WUHU216DAVISVP2,2013-02-15 00:10:00,
2013-02-14 19:15:00,48.9,35.3,30.02,NNW,334,2.0,2.0,59,0.00,,,0.00,WUHU216DAVISVP2,2013-02-15 00:15:00,
2013-02-14 19:20:00,48.8,35.2,30.02,NNW,336,0.0,2.0,59,0.00,,,0.00,WUHU216DAVISVP2,2013-02-15 00:20:00,
2013-02-14 19:25:00,48.7,35.1,30.02,NNW,336,1.0,2.0,59,0.00,,,0.00,WUHU216DAVISVP2,2013-02-15 00:25:00,
2013-02-14 19:30:00,48.5,35.3,30.02,NNW,341,0.0,2.0,60,0.00,,,0.00,WUHU216DAVISVP2,2013-02-15 00:30:00,
2013-02-14 19:35:00,48.5,35.3,30.02,NNW,343,0.0,2.0,60,0.00,,,0.00,WUHU216DAVISVP2,2013-02-15 00:35:00,
2013-02-14 19:40:00,48.3,35.6,30.02,NNW,343,0.0,2.0,61,0.00,,,0.00,WUHU216DAVISVP2,2013-02-15 00:40:00,
2013-02-14 19:45:00,47.9,35.6,30.02,NNW,343,0.0,2.0,62,0.00,,,0.00,WUHU216DAVISVP2,2013-02-15 00:45:00,
2013-02-14 19:50:00,47.5,36.0,30.02,NNW,343,1.0,1.0,64,0.00,,,0.00,WUHU216DAVISVP2,2013-02-15 00:50:00,
2013-02-14 19:55:00,47.2,35.7,30.03,NNW,343,1.0,1.0,64,0.00,,,0.00,WUHU216DAVISVP2,2013-02-15 00:55:00,
2013-02-14 20:00:00,47.2,36.1,30.03,NW,305,1.0,3.0,65,0.00,,,0.00,WUHU216DAVISVP2,2013-02-15 01:00:00,
2013-02-14 20:05:00,47.2,36.1,30.03,NNW,333,2.0,3.0,65,0.00,,,0.00,WUHU216DAVISVP2,2013-02-15 01:05:00,
2013-02-14 20:10:00,47.2,36.1,30.03,NNW,346,1.0,3.0,65,0.00,,,0.00,WUHU216DAVISVP2,2013-02-15 01:10:00,
2013-02-14 20:15:00,47.1,36.0,30.03,NNW,344,1.3,3.0,65,0.00,,,0.00,WUHU216DAVISVP2,2013-02-15 01:15:00,
2013-02-14 20:20:00,47.1,36.0,30.03,NW,324,1.0,4.0,65,0.00,,,0.00,WUHU216DAVISVP2,2013-02-15 01:20:00,
2013-02-14 20:25:00,47.0,36.3,30.04,NW,325,1.0,4.0,66,0.00,,,0.00,WUHU216DAVISVP2,2013-02-15 01:25:00,
2013-02-14 20:30:00,46.8,36.1,30.04,NNW,327,1.0,4.0,66,0.00,,,0.00,WUHU216DAVISVP2,2013-02-15 01:30:00,
2013-02-14 20:35:00,46.7,36.0,30.04,NNW,327,0.0,2.0,66,0.00,,,0.00,WUHU216DAVISVP2,2013-02-15 01:35:00,
2013-02-14 20:40:00,46.6,36.3,30.04,NNW,327,0.0,2.0,67,0.00,,,0.00,WUHU216DAVISVP2,2013-02-15 01:40:00,
2013-02-14 20:45:00,46.5,36.2,30.04,NNW,328,1.0,1.0,67,0.00,,,0.00,WUHU216DAVISVP2,2013-02-15 01:45:00,
2013-02-14 20:50:00,46.4,36.1,30.04,West,276,0.0,2.0,67,0.00,,,0.00,WUHU216DAVISVP2,2013-02-15 01:50:00,
2013-02-14 20:55:00,46.4,36.1,30.04,West,281,1.0,2.0,67,0.00,,,0.00,WUHU216DAVISVP2,2013-02-15 01:55:00,
2013-02-14 21:00:00,46.5,36.2,30.04,NNW,333,1.5,2.0,67,0.00,,,0.00,WUHU216DAVISVP2,2013-02-15 02:00:00,
2013-02-14 21:05:00,46.5,36.2,30.05,NNW,333,0.0,2.0,67,0.00,,,0.00,WUHU216DAVISVP2,2013-02-15 02:05:00,
2013-02-14 21:10:00,46.6,36.3,30.04,NNW,333,0.0,2.0,67,0.00,,,0.00,WUHU216DAVISVP2,2013-02-15 02:10:00,
2013-02-14 21:15:00,46.6,36.3,30.05,NNW,333,0.0,2.0,67,0.00,,,0.00,WUHU216DAVISVP2,2013-02-15 02:15:00,
2013-02-14 21:20:00,46.6,36.3,30.05,NNW,333,0.0,1.0,67,0.00,,,0.00,WUHU216DAVISVP2,2013-02-15 02:20:00,
2013-02-14 21:25:00,46.4,36.1,30.05,NNW,333,0.0,1.0,67,0.00,,,0.00,WUHU216DAVISVP2,2013-02-15 02:25:00,
2013-02-14 21:30:00,46.3,36.0,30.05,NNW,333,0.0,1.0,67,0.00,,,0.00,WUHU216DAVISVP2,2013-02-15 02:30:00,
2013-02-14 21:35:00,46.2,35.9,30.05,NNW,333,0.0,0.0,67,0.00,,,0.00,WUHU216DAVISVP2,2013-02-15 02:35:00,
2013-02-14 21:40:00,46.1,35.8,30.05,NNW,342,0.0,1.0,67,0.00,,,0.00,WUHU216DAVISVP2,2013-02-15 02:40:00,
2013-02-14 21:45:00,46.2,35.9,30.05,NNW,342,0.0,1.0,67,0.00,,,0.00,WUHU216DAVISVP2,2013-02-15 02:45:00,
2013-02-14 21:50:00,46.0,35.8,30.05,NNW,342,0.0,1.0,67,0.00,,,0.00,WUHU216DAVISVP2,2013-02-15 02:50:00,
2013-02-14 21:55:00,45.8,35.9,30.05,NNW,342,0.0,1.0,68,0.00,,,0.00,WUHU216DAVISVP2,2013-02-15 02:55:00,
2013-02-14 22:00:00,45.5,35.6,30.05,NNW,342,0.0,0.0,68,0.00,,,0.00,WUHU216DAVISVP2,2013-02-15 03:00:00,
2013-02-14 22:05:00,45.3,35.8,30.05,NNW,342,0.0,0.0,69,0.00,,,0.00,WUHU216DAVISVP2,2013-02-15 03:05:00,
2013-02-14 22:10:00,45.1,35.6,30.05,NNW,342,0.0,0.0,69,0.00,,,0.00,WUHU216DAVISVP2,2013-02-15 03:10:00,
2013-02-14 22:15:00,45.0,35.9,30.05,NNW,342,0.0,0.0,70,0.00,,,0.00,WUHU216DAVISVP2,2013-02-15 03:15:00,
2013-02-14 22:20:00,44.9,35.8,30.05,NNW,342,0.0,0.0,70,0.00,,,0.00,WUHU216DAVISVP2,2013-02-15 03:20:00,
2013-02-14 22:25:00,44.9,35.8,30.06,NNW,342,0.0,0.0,70,0.00,,,0.00,WUHU216DAVISVP2,2013-02-15 03:25:00,
2013-02-14 22:30:00,44.9,35.8,30.06,NNW,342,0.0,0.0,70,0.00,,,0.00,WUHU216DAVISVP2,2013-02-15 03:30:00,
2013-02-14 22:35:00,44.8,35.7,30.06,NNW,342,0.0,0.0,70,0.00,,,0.00,WUHU216DAVISVP2,2013-02-15 03:35:00,
2013-02-14 22:40:00,44.6,35.9,30.06,NNW,342,0.0,0.0,71,0.00,,,0.00,WUHU216DAVISVP2,2013-02-15 03:40:00,
2013-02-14 22:45:00,44.5,35.8,30.06,NNW,342,0.0,0.0,71,0.00,,,0.00,WUHU216DAVISVP2,2013-02-15 03:45:00,
2013-02-14 22:50:00,44.3,35.6,30.06,NNW,342,0.0,0.0,71,0.00,,,0.00,WUHU216DAVISVP2,2013-02-15 03:50:00,
2013-02-14 22:55:00,44.2,35.8,30.06,NNW,342,0.0,0.0,72,0.00,,,0.00,WUHU216DAVISVP2,2013-02-15 03:55:00,
2013-02-14 23:00:00,44.0,35.6,30.06,NNW,342,0.0,0.0,72,0.00,,,0.00,WUHU216DAVISVP2,2013-02-15 04:00:00,
2013-02-14 23:05:00,43.8,35.4,30.06,NNW,342,0.0,0.0,72,0.00,,,0.00,WUHU216DAVISVP2,2013-02-15 04:05:00,
2013-02-14 23:10:00,43.7,35.7,30.06,NNW,342,0.0,0.0,73,0.00,,,0.00,WUHU216DAVISVP2,2013-02-15 04:10:00,
2013-02-14 23:15:00,43.7,35.7,30.06,NNW,342,0.0,0.0,73,0.00,,,0.00,WUHU216DAVISVP2,2013-02-15 04:15:00,
2013-02-14 23:20:00,43.7,36.7,30.06,NNW,342,0.0,0.0,76,0.00,,,0.00,WUHU216DAVISVP2,2013-02-15 04:20:00,
2013-02-14 23:25:00,43.7,35.7,30.06,NNW,342,0.0,0.0,73,0.00,,,0.00,WUHU216DAVISVP2,2013-02-15 04:25:00,
2013-02-14 23:30:00,43.7,35.7,30.06,NNW,342,0.0,0.0,73,0.00,,,0.00,WUHU216DAVISVP2,2013-02-15 04:30:00,
2013-02-14 23:35:00,43.6,35.6,30.06,NNW,342,0.0,0.0,73,0.00,,,0.00,WUHU216DAVISVP2,2013-02-15 04:35:00,
2013-02-14 23:40:00,43.6,35.6,30.06,NNW,342,0.0,1.0,73,0.00,,,0.00,WUHU216DAVISVP2,2013-02-15 04:40:00,
2013-02-14 23:45:00,43.4,35.7,30.06,NNW,342,0.0,1.0,74,0.00,,,0.00,WUHU216DAVISVP2,2013-02-15 04:45:00,
2013-02-14 23:50:00,43.3,35.6,30.06,NNW,342,0.0,1.0,74,0.00,,,0.00,WUHU216DAVISVP2,2013-02-15 04:50:00,
2013-02-14 23:55:00,43.1,35.4,30.06,NNW,342,0.0,1.0,74,0.00,,,0.00,WUHU216DAVISVP2,2013-02-15 04:55:00,